EW1090 Weather Reports


Display with metric or nautical units.
time (UTC)temp
F
wind
direction
speed
MPH
gust
MPH
rain 1hr
in
rain 24hr
in
rain mn
in
humidity
%
barometer
mb
20260906053303 77 334 0.0 0.0 0.01 0.10 0.10 89 1011.8
20260906052820 77 200 0.0 0.0 0.00 0.09 0.09 89 1011.7
20260906052341 77 200 0.0 0.0 0.00 0.09 0.09 89 1011.7
20260906051835 77 200 0.0 0.0 0.00 0.10 0.09 89 1011.7
20260906051312 77 200 0.0 0.0 0.00 0.10 0.09 89 1011.7
20260906050829 77 200 0.0 0.0 0.00 0.10 0.09 89 1011.7
20260906050305 77 200 0.0 0.0 0.00 0.10 0.09 89 1011.7
20260906045801 77 200 0.0 0.0 0.00 0.10 0.09 89 1011.6
20260906045256 77 200 0.0 0.0 0.00 0.10 0.09 89 1011.5
20260906044813 77 200 0.0 0.0 0.00 0.10 0.09 89 1011.6
20260906044309 77 200 0.0 0.0 0.00 0.10 0.09 89 1011.7
20260906043805 77 200 0.0 0.0 0.00 0.10 0.09 89 1011.8
20260906043300 77 200 0.0 0.0 0.00 0.10 0.09 89 1011.7
20260906042816 77 200 0.0 0.0 0.00 0.10 0.09 89 1011.7
20260906042311 77 200 0.0 0.0 0.00 0.10 0.09 89 1011.8
20260906041807 77 200 0.0 0.0 0.00 0.10 0.09 89 1011.7
20260906041303 77 200 0.0 0.0 0.00 0.10 0.09 89 1011.6
20260906040759 77 200 0.0 0.0 0.00 0.10 0.09 89 1011.6
20260906040256 77 200 0.0 0.0 0.00 0.10 0.09 89 1011.6
20260906035814 77 200 0.0 0.0 0.00 0.10 0.09 89 1011.6
20260906035310 77 200 0.0 0.0 0.00 0.10 0.09 89 1011.5
20260906034806 77 200 0.0 0.0 0.00 0.10 0.09 89 1011.5
20260906034304 77 200 0.0 0.0 0.01 0.10 0.09 89 1011.6
20260906033800 77 200 0.0 0.0 0.01 0.10 0.09 89 1011.6
20260906033256 77 200 0.0 0.0 0.01 0.10 0.09 89 1011.8
20260906032810 77 200 0.0 0.0 0.01 0.10 0.09 89 1011.7
20260906032326 77 200 0.0 0.0 0.01 0.10 0.09 89 1011.7
20260906031802 77 200 0.0 0.0 0.01 0.11 0.09 89 1011.7
20260906031258 77 200 0.0 0.0 0.01 0.11 0.09 89 1011.7
20260906030813 77 200 0.0 0.0 0.01 0.11 0.09 89 1011.6
20260906030310 77 200 0.0 0.0 0.01 0.11 0.09 89 1011.6
20260906025805 77 200 0.0 0.0 0.01 0.11 0.09 89 1011.7
20260906025319 77 200 0.0 0.0 0.01 0.11 0.09 89 1011.6
20260906024836 77 200 0.0 0.0 0.01 0.11 0.09 89 1011.7
20260906024312 77 200 0.0 0.0 0.00 0.10 0.08 89 1011.8
20260906023807 77 200 0.0 0.0 0.00 0.10 0.08 89 1011.7
20260906023323 77 200 0.0 0.0 0.00 0.10 0.08 89 1011.5
20260906022757 77 200 0.0 0.0 0.00 0.10 0.08 89 1011.6
20260906022313 77 200 0.0 0.0 0.00 0.10 0.08 89 1011.5
20260906021811 77 200 0.0 0.0 0.00 0.10 0.08 89 1011.6
20260906021307 77 200 0.0 0.0 0.00 0.10 0.08 89 1011.7
20260906020803 77 200 0.0 0.0 0.00 0.10 0.08 89 1011.7
20260906020320 77 200 0.0 0.0 0.00 0.10 0.08 89 1011.8
20260906015836 77 200 0.0 0.0 0.00 0.10 0.08 89 1011.7
20260906014757 77 200 0.0 0.0 0.00 0.10 0.08 89 1011.5
20260906014312 77 200 0.0 0.0 0.00 0.10 0.08 89 1011.4
20260906013809 77 200 0.0 0.0 0.00 0.10 0.08 89 1011.3
20260906013306 77 200 0.0 0.0 0.00 0.10 0.08 89 1011.3
20260906012803 77 200 0.0 0.0 0.00 0.10 0.08 89 1011.3
20260906012301 77 200 0.0 0.0 0.00 0.10 0.08 88 1011.3
20260906011818 77 200 0.0 0.0 0.00 0.10 0.08 88 1011.3
20260906011331 77 200 0.0 0.0 0.01 0.10 0.08 88 1011.3
20260906010313 77 200 0.0 0.0 0.01 0.10 0.08 88 1011.4
20260906005808 77 200 0.0 0.0 0.01 0.10 0.08 88 1011.4
20260906005306 77 200 0.0 0.0 0.01 0.10 0.08 88 1011.5
20260906004803 77 200 0.0 0.0 0.01 0.10 0.08 89 1011.5
20260906004320 77 200 0.0 0.0 0.01 0.10 0.08 89 1011.5
20260906003815 77 200 0.0 0.0 0.01 0.10 0.08 89 1011.4
20260906003310 77 200 0.0 0.0 0.01 0.10 0.08 89 1011.4
20260906002805 77 200 0.0 0.0 0.01 0.10 0.08 89 1011.5
20260906002311 77 200 0.0 0.0 0.01 0.10 0.08 89 1011.4
20260906001807 77 200 0.0 0.0 0.01 0.11 0.08 89 1011.4
20260906001305 76 200 0.0 0.0 0.00 0.10 0.07 88 1011.6
20260906000802 76 200 0.0 0.0 0.00 0.10 0.07 88 1011.7
20260906000258 76 200 0.0 0.0 0.00 0.10 0.07 88 1011.6
20260905235814 76 200 0.0 0.0 0.00 0.10 0.07 88 1011.5
20260905235309 76 200 0.0 0.0 0.00 0.10 0.07 88 1011.6
20260905234827 76 200 0.0 0.0 0.00 0.10 0.07 88 1011.4
20260905234302 76 200 0.0 0.0 0.00 0.10 0.07 88 1011.4
20260905233818 76 200 0.0 0.0 0.00 0.10 0.07 88 1011.3
20260905233335 76 200 0.0 0.0 0.00 0.10 0.07 88 1011.4
20260905232810 75 200 0.0 0.0 0.00 0.10 0.07 87 1011.4
20260905232308 75 200 0.0 0.0 0.00 0.10 0.07 87 1011.6
20260905231804 75 200 0.0 2.0 0.00 0.10 0.07 86 1011.7
20260905231258 75 200 0.0 2.0 0.00 0.10 0.07 85 1011.7
20260905230816 75 96 0.0 2.0 0.00 0.10 0.07 85 1011.9
20260905230326 75 165 0.0 4.0 0.00 0.10 0.07 84 1012.0
20260905225802 75 172 1.0 4.0 0.00 0.10 0.07 83 1012.0
20260905225257 76 111 1.0 3.0 0.00 0.10 0.07 84 1012.3
20260905224814 76 177 0.0 4.0 0.00 0.10 0.07 84 1012.3
20260905224311 76 303 0.0 9.0 0.00 0.10 0.07 82 1012.1
20260905223807 77 173 1.0 9.0 0.01 0.10 0.07 81 1012.4
20260905223301 77 81 1.0 7.0 0.01 0.10 0.07 80 1012.4
20260905222816 79 294 1.0 7.0 0.01 0.10 0.07 79 1012.3
20260905222311 81 182 3.0 7.0 0.01 0.10 0.07 79 1012.4
20260905221808 82 230 3.0 9.0 0.01 0.11 0.07 78 1012.5
20260905221322 84 184 4.0 9.0 0.01 0.11 0.07 75 1012.4
20260905220836 85 163 2.0 11.0 0.01 0.11 0.07 71 1012.1
20260905220310 86 253 3.0 11.0 0.01 0.11 0.07 68 1011.8
20260905215806 88 289 1.0 4.0 0.01 0.11 0.07 69 1011.5
20260905215322 88 355 1.0 4.0 0.01 0.11 0.07 69 1011.3
20260905214840 89 22 1.0 4.0 0.01 0.11 0.07 68 1011.2
20260905214331 89 9 1.0 3.0 0.00 0.10 0.06 67 1011.4
20260905213805 89 60 1.0 3.0 0.00 0.10 0.06 67 1011.3
20260905213302 90 101 1.0 4.0 0.00 0.10 0.06 66 1011.3
20260905212800 90 72 0.0 3.0 0.00 0.10 0.06 64 1011.3
20260905212340 90 53 0.0 3.0 0.00 0.10 0.06 62 1011.2
20260905211834 90 52 0.0 3.0 0.00 0.11 0.06 62 1011.2
20260905211304 90 83 1.0 5.0 0.00 0.11 0.06 63 1011.2
20260905210800 90 223 0.0 3.0 0.00 0.11 0.06 65 1011.2
20260905210257 91 338 1.0 3.0 0.00 0.11 0.06 65 1011.1
20260905205812 91 348 1.0 3.0 0.00 0.11 0.06 65 1011.2
20260905205328 91 17 0.0 4.0 0.00 0.11 0.06 66 1011.2
20260905204804 91 344 1.0 5.0 0.00 0.11 0.06 65 1011.3
20260905204259 92 327 1.0 5.0 0.00 0.11 0.06 65 1011.2
20260905203816 92 28 1.0 4.0 0.01 0.11 0.06 64 1011.3
20260905203333 93 92 1.0 6.0 0.01 0.11 0.06 63 1011.3
20260905202807 93 121 1.0 6.0 0.01 0.11 0.06 62 1011.3
20260905202301 93 30 1.0 5.0 0.01 0.11 0.06 62 1011.4
20260905201759 93 171 2.0 6.0 0.01 0.11 0.06 61 1011.4
20260905201314 94 348 1.0 3.0 0.01 0.11 0.06 61 1011.4
20260905200813 94 34 0.0 3.0 0.01 0.11 0.06 60 1011.4
20260905200310 93 98 1.0 4.0 0.01 0.11 0.06 60 1011.4
20260905195806 93 77 1.0 4.0 0.01 0.11 0.06 59 1011.6
20260905195301 93 31 1.0 6.0 0.01 0.11 0.06 59 1011.6
20260905194816 93 12 2.0 6.0 0.01 0.11 0.06 59 1011.7
20260905194310 94 38 1.0 5.0 0.01 0.11 0.06 61 1011.8
20260905193807 94 14 2.0 5.0 0.00 0.10 0.05 58 1011.8
20260905193300 94 5 1.0 3.0 0.00 0.10 0.05 58 1012.0
20260905192757 94 41 0.0 4.0 0.00 0.10 0.05 59 1012.2
20260905192314 94 355 1.0 4.0 0.00 0.10 0.05 58 1012.1
20260905191811 94 342 1.0 5.0 0.00 0.11 0.05 58 1012.1
20260905191328 94 92 1.0 5.0 0.00 0.11 0.05 57 1012.3
20260905190803 94 5 0.0 3.0 0.00 0.11 0.05 57 1012.4
20260905190319 94 11 1.0 4.0 0.00 0.11 0.05 58 1012.5
20260905185808 94 88 1.0 4.0 0.00 0.11 0.05 58 1012.6
20260905185324 93 340 0.0 2.0 0.00 0.11 0.05 61 1012.7
20260905184820 93 5 0.0 2.0 0.00 0.11 0.05 61 1012.7
20260905184335 93 333 0.0 5.0 0.01 0.11 0.05 63 1012.9
20260905183809 92 84 1.0 5.0 0.01 0.11 0.05 63 1013.0
20260905183303 91 294 1.0 4.0 0.01 0.11 0.05 65 1013.0
20260905182817 90 360 1.0 4.0 0.01 0.11 0.05 63 1013.0
20260905182310 90 16 0.0 2.0 0.01 0.11 0.05 65 1013.1
20260905181806 90 26 0.0 3.0 0.01 0.11 0.05 65 1013.1
20260905181303 90 341 0.0 2.0 0.01 0.11 0.05 65 1013.2
20260905180758 90 335 0.0 2.0 0.01 0.11 0.05 65 1013.2
20260905180315 90 313 0.0 7.0 0.01 0.11 0.05 67 1013.2
20260905175813 89 296 0.0 3.0 0.01 0.11 0.05 67 1013.2
20260905175307 89 98 1.0 3.0 0.01 0.11 0.05 65 1013.3
20260905174822 88 107 0.0 1.0 0.01 0.11 0.05 71 1013.4
20260905174314 87 143 0.0 2.0 0.00 0.10 0.04 71 1013.4
20260905173809 86 134 0.0 2.0 0.00 0.10 0.04 71 1013.4
20260905173306 86 143 0.0 3.0 0.00 0.10 0.04 71 1013.5
20260905172803 85 227 0.0 3.0 0.00 0.10 0.04 75 1013.5
20260905172301 84 175 0.0 2.0 0.00 0.10 0.04 76 1013.5
20260905171816 83 181 0.0 2.0 0.00 0.11 0.04 77 1013.5
20260905171313 82 181 0.0 3.0 0.00 0.11 0.04 77 1013.8
20260905170830 82 214 0.0 0.0 0.00 0.11 0.04 78 1013.8
20260905170326 82 214 0.0 1.0 0.00 0.11 0.04 78 1013.9
20260905165801 81 214 0.0 1.0 0.00 0.11 0.04 79 1014.0
20260905165258 81 214 0.0 5.0 0.00 0.11 0.04 80 1013.9
20260905164815 81 191 1.0 5.0 0.00 0.11 0.04 78 1014.0
20260905164331 81 203 1.0 5.0 0.00 0.11 0.04 78 1014.1
20260905163806 81 245 1.0 8.0 0.01 0.11 0.04 78 1014.0
20260905163303 82 219 2.0 8.0 0.01 0.11 0.04 77 1014.1
20260905162757 82 118 1.0 7.0 0.01 0.11 0.04 76 1014.1
20260905161258 84 213 0.0 11.0 0.01 0.11 0.04 72 1014.3
20260905160811 85 67 2.0 11.0 0.01 0.11 0.04 71 1014.4
20260905160327 87 256 1.0 8.0 0.01 0.11 0.04 70 1014.2
20260905155802 87 341 0.0 3.0 0.01 0.11 0.04 70 1014.2
20260905155317 87 74 1.0 3.0 0.01 0.11 0.04 71 1014.2
20260905154832 88 88 1.0 3.0 0.01 0.11 0.04 71 1014.0
20260905154328 88 24 0.0 7.0 0.01 0.11 0.04 71 1013.9
20260905153804 88 101 1.0 7.0 0.00 0.10 0.03 71 1013.8
20260905153300 88 277 1.0 6.0 0.00 0.10 0.03 72 1013.8
20260905152817 87 92 1.0 4.0 0.00 0.10 0.03 72 1013.8
20260905152314 88 55 1.0 4.0 0.00 0.10 0.03 72 1013.7
20260905151811 87 61 1.0 4.0 0.00 0.11 0.03 72 1013.9
20260905151307 87 11 0.0 2.0 0.00 0.11 0.03 72 1013.7
20260905150307 87 14 0.0 4.0 0.00 0.11 0.03 72 1013.7
20260905145824 87 326 0.0 3.0 0.00 0.11 0.03 73 1013.7
20260905145317 87 16 1.0 3.0 0.00 0.11 0.03 73 1013.5
20260905144814 87 278 0.0 2.0 0.00 0.11 0.03 72 1013.7
20260905144310 86 308 0.0 2.0 0.00 0.11 0.03 74 1013.6
20260905143828 86 319 0.0 3.0 0.00 0.11 0.03 75 1013.6
20260905143302 85 296 0.0 3.0 0.00 0.11 0.03 75 1013.6
20260905142817 84 301 1.0 4.0 0.00 0.11 0.03 76 1013.5
20260905142330 83 296 2.0 4.0 0.01 0.11 0.03 78 1013.7
20260905141806 83 340 0.0 0.0 0.01 0.11 0.03 80 1013.7
20260905141303 82 71 0.0 0.0 0.01 0.11 0.03 81 1013.7
20260905140820 81 355 0.0 0.0 0.01 0.11 0.03 81 1013.6
20260905140335 81 63 0.0 0.0 0.01 0.11 0.03 82 1013.7
20260905135808 81 63 0.0 0.0 0.01 0.11 0.03 83 1013.4
20260905135306 81 63 0.0 0.0 0.01 0.11 0.03 83 1013.5
20260905134758 81 63 0.0 0.0 0.01 0.11 0.03 83 1013.6
20260905134309 81 63 0.0 0.0 0.01 0.11 0.03 83 1013.5
20260905133806 81 63 0.0 0.0 0.01 0.11 0.03 83 1013.6
20260905133322 81 63 0.0 0.0 0.01 0.11 0.03 83 1013.6
20260905132838 80 63 0.0 0.0 0.01 0.11 0.03 83 1013.7
20260905132311 80 63 0.0 1.0 0.00 0.10 0.02 83 1013.6
20260905131807 80 63 0.0 1.0 0.00 0.10 0.02 82 1013.6
20260905131305 80 63 0.0 1.0 0.00 0.10 0.02 83 1013.7
20260905130821 80 63 0.0 1.0 0.00 0.10 0.02 82 1013.6
20260905130338 80 63 0.0 1.0 0.00 0.10 0.02 82 1013.6
20260905125813 80 264 0.0 0.0 0.00 0.10 0.02 83 1013.7
20260905125310 80 264 0.0 0.0 0.00 0.10 0.02 83 1013.6
20260905124806 80 264 0.0 0.0 0.00 0.10 0.02 84 1013.4
20260905124300 79 264 0.0 0.0 0.00 0.10 0.02 84 1013.5
20260905123817 79 264 0.0 0.0 0.00 0.10 0.02 84 1013.4
20260905123313 79 264 0.0 0.0 0.00 0.10 0.02 84 1013.4
20260905122810 79 264 0.0 0.0 0.00 0.10 0.02 84 1013.4
20260905122327 79 264 0.0 0.0 0.00 0.10 0.02 85 1013.4
20260905121802 79 264 0.0 0.0 0.00 0.11 0.02 85 1013.5
20260905121300 78 264 0.0 0.0 0.00 0.11 0.02 84 1013.4
20260905120815 78 264 0.0 0.0 0.00 0.11 0.02 84 1013.4
20260905120310 78 264 0.0 0.0 0.00 0.11 0.02 84 1013.4
20260905115806 78 264 0.0 0.0 0.00 0.11 0.02 84 1013.4
20260905115300 78 264 0.0 0.0 0.00 0.11 0.02 84 1013.3
20260905114815 78 264 0.0 0.0 0.00 0.11 0.02 84 1013.2
20260905114310 78 264 0.0 0.0 0.00 0.11 0.02 84 1013.2
20260905113825 78 264 0.0 0.0 0.01 0.11 0.02 84 1013.2
20260905113259 78 264 0.0 0.0 0.01 0.11 0.02 83 1013.1
20260905112817 78 264 0.0 0.0 0.01 0.11 0.02 83 1012.9
20260905112332 78 264 0.0 0.0 0.01 0.11 0.02 83 1012.7
20260905111809 78 264 0.0 0.0 0.01 0.11 0.02 83 1012.7
20260905111304 79 264 0.0 0.0 0.01 0.11 0.02 83 1012.5
20260905110801 79 264 0.0 0.0 0.01 0.11 0.02 83 1012.5
20260905110317 79 264 0.0 0.0 0.01 0.11 0.02 82 1012.4
20260905105328 79 264 0.0 0.0 0.01 0.11 0.02 82 1012.5
20260905104824 79 264 0.0 0.0 0.01 0.11 0.02 82 1012.4
20260905104258 79 264 0.0 0.0 0.01 0.11 0.02 82 1012.3
20260905103842 79 264 0.0 0.0 0.00 0.10 0.01 82 1012.4
20260905103339 79 264 0.0 0.0 0.00 0.10 0.01 82 1012.3
20260905102814 79 264 0.0 0.0 0.00 0.10 0.01 82 1012.3
20260905102329 79 264 0.0 0.0 0.00 0.10 0.01 82 1012.4
20260905101300 79 264 0.0 0.0 0.00 0.10 0.01 82 1012.4
20260905100758 79 264 0.0 0.0 0.00 0.10 0.01 82 1012.4
20260905100314 79 264 0.0 0.0 0.00 0.10 0.01 81 1012.5
20260905095831 79 264 0.0 0.0 0.00 0.10 0.01 81 1012.6
20260905095306 79 264 0.0 1.0 0.00 0.10 0.01 81 1012.7
20260905094823 79 264 0.0 1.0 0.00 0.10 0.01 81 1012.7
20260905094319 79 264 0.0 0.0 0.00 0.10 0.01 82 1012.7
20260905093834 79 264 0.0 0.0 0.00 0.10 0.01 82 1012.6
20260905093310 79 264 0.0 0.0 0.00 0.10 0.01 82 1012.6
20260905092823 79 264 0.0 0.0 0.00 0.10 0.01 81 1012.7
20260905092300 79 264 0.0 0.0 0.00 0.10 0.01 81 1012.6
20260905091810 79 264 0.0 0.0 0.00 0.10 0.01 81 1012.6
20260905091305 79 264 0.0 0.0 0.00 0.10 0.01 81 1012.6
20260905090759 79 264 0.0 0.0 0.00 0.10 0.01 81 1012.6
20260905090316 79 264 0.0 0.0 0.00 0.10 0.01 81 1012.7
20260905085812 80 264 0.0 0.0 0.00 0.10 0.01 81 1012.5
20260905085309 80 264 0.0 0.0 0.01 0.10 0.01 80 1012.3
20260905084825 80 264 0.0 1.0 0.01 0.10 0.01 80 1012.4
20260905084300 80 264 0.0 1.0 0.01 0.10 0.01 80 1012.5
20260905083818 79 264 0.0 0.0 0.01 0.10 0.01 80 1012.6
20260905083335 79 264 0.0 1.0 0.01 0.10 0.01 80 1012.6
20260905082809 79 264 0.0 1.0 0.01 0.10 0.01 80 1012.6
20260905082307 79 264 0.0 0.0 0.01 0.10 0.01 81 1012.5
20260905081801 79 264 0.0 0.0 0.01 0.10 0.01 81 1012.3
20260905081318 80 264 0.0 0.0 0.01 0.10 0.01 81 1012.2
20260905080832 80 264 0.0 1.0 0.01 0.10 0.01 81 1012.2
20260905080307 80 264 0.0 0.0 0.01 0.10 0.01 81 1012.2
20260905075824 80 264 0.0 0.0 0.01 0.10 0.01 81 1012.1
20260905075341 80 264 0.0 1.0 0.00 0.09 0.00 81 1012.2
20260905074837 80 264 0.0 1.0 0.00 0.09 0.00 81 1012.2
20260905074312 80 257 0.0 3.0 0.00 0.09 0.00 81 1012.2
20260905073826 80 257 0.0 3.0 0.00 0.09 0.00 81 1012.4
20260905073321 80 257 0.0 0.0 0.00 0.09 0.00 81 1012.4
20260905072831 80 257 0.0 0.0 0.00 0.09 0.00 81 1012.4
20260905072306 80 257 0.0 0.0 0.00 0.09 0.00 81 1012.4
20260905071801 80 257 0.0 1.0 0.00 0.09 0.09 81 1012.4
20260905071318 80 257 0.0 1.0 0.00 0.09 0.09 81 1012.4
20260905070808 80 257 0.0 0.0 0.00 0.09 0.09 81 1012.3
20260905065839 80 257 0.0 0.0 0.00 0.09 0.09 82 1012.2
20260905065315 80 257 0.0 1.0 0.00 0.09 0.09 82 1012.3
20260905064812 80 257 0.0 1.0 0.00 0.09 0.09 82 1012.2
20260905064307 80 203 0.0 0.0 0.00 0.09 0.09 82 1012.3
20260905063804 80 203 0.0 0.0 0.00 0.09 0.09 82 1012.2
20260905063302 80 203 0.0 0.0 0.00 0.09 0.09 82 1012.2
20260905062759 80 203 0.0 0.0 0.00 0.09 0.09 81 1012.1
20260905062316 80 203 0.0 0.0 0.00 0.09 0.09 81 1012.2
20260905061814 80 203 0.0 0.0 0.00 0.09 0.09 81 1012.4
20260905061309 80 203 0.0 1.0 0.00 0.09 0.09 81 1012.3
20260905060852 80 203 0.0 1.0 0.01 0.09 0.09 81 1012.4
20260905060327 80 203 0.0 0.0 0.01 0.09 0.09 81 1012.4
20260905055803 81 203 0.0 0.0 0.01 0.09 0.09 81 1012.4
20260905055300 81 203 0.0 2.0 0.01 0.09 0.09 81 1012.5
20260905054816 81 203 0.0 2.0 0.01 0.09 0.09 81 1012.5
20260905054314 81 196 0.0 0.0 0.01 0.09 0.09 81 1012.5